Regional Weather Roundup
Issued by NWS

Home | Current Version | Previous Version | Graphics & Text | Print | Product List | Glossary Off
Versions: 1 2 3 4 5 6 7 8 9 10 11 12 13 14 15 16 17 18 19 20 21 22 23 24 25 26 27 28 29 30 31 32 33 34 35 36 37 38 39 40 41 42 43 44 45 46 47 48 49 50

000
ASUS43 KMKX 261700
RWRWI

WISCONSIN REGIONAL WEATHER ROUNDUP
NATIONAL WEATHER SERVICE MILWAUKEE/SULLIVAN WI
1100 AM CST FRI DEC 26 2014

NOTE: "FAIR" INDICATES FEW OR NO CLOUDS BELOW 12,000 FEET WITH NO
SIGNIFICANT WEATHER AND/OR OBSTRUCTIONS TO VISIBILITY.

WIZ001-002-006>008-014>016-023>028-261800-
NORTHWEST WISCONSIN

CITY           SKY/WX    TMP DP  RH WIND       PRES   REMARKS
SUPERIOR ARPT  LGT SNOW  30  25  81 NE5       30.07S WCI  25
ASHLAND        LGT SNOW  31  28  89 N7        30.04S FOG     WCI  24
HAYWARD        CLOUDY    30  26  85 N8        30.01R FOG     WCI  22
SIREN          CLOUDY    30  28  93 N12       30.04R FOG     WCI  20
CUMBERLAND     LGT SNOW  30  28  93 NE7       29.99R WCI  23
RICE LAKE      CLOUDY    32  29  90 N10       30.01R WCI  24
CHETEK         CLOUDY    32  30  94 NW5       29.99R FOG     WCI  27
LADYSMITH      CLOUDY    32  30  93 N9        29.99R WCI  24
EAU CLAIRE     CLOUDY    34  29  82 N7        29.96S WCI  28
MENOMONIE      CLOUDY    33  31  91 N7        29.98S FOG     WCI  27
NEW RICHMOND   CLOUDY    32  31  97 N9        30.00S WCI  24
OSCEOLA        CLOUDY    31  31 100 N8        30.04S WCI  24
$$

WIZ003>005-009-010-017-018-261800-
NORTH CENTRAL WISCONSIN

CITY           SKY/WX    TMP DP  RH WIND       PRES   REMARKS
MANITOWISH WTR LGT SNOW  29  29 100 N3        29.96S
ARBOR VITAE    CLOUDY    32  30  94 N5        29.95S FOG     WCI  27
WOODRUFF       CLOUDY    32  30  94 N5        29.95S FOG     WCI  27
RHINELANDER    CLOUDY    30  28  92 NE3       29.94F FOG
EAGLE RIVER    CLOUDY    30  29  97 CALM      29.94S FOG
LAND O LAKES   LGT SNOW  29  28  96 N5        29.96S WCI  24
PHILLIPS       CLOUDY    30  28  94 N7        29.96S WCI  23
TOMAHAWK       CLOUDY    31  29  92 CALM      29.95S FOG
MEDFORD        CLOUDY    31  30  96 NE3       29.93S FOG
MERRILL        CLOUDY    31  30  96 CALM      29.95S FOG
$$

WIZ029-030-035-036-043>047-261800-
CENTRAL WISCONSIN

CITY           SKY/WX    TMP DP  RH WIND       PRES   REMARKS
WAUSAU         CLOUDY    31  30  96 E3        29.93F FOG
MOSINEE        FOG       28  28 100 CALM      29.95S VSB 1/8
MARSHFIELD     SUNNY     33  29  85 NE3       29.93F
STEVENS POINT  SUNNY     32  32  99 CALM      29.95F
WAUPACA        PTSUNNY   35  34  96 NW3       29.96F FOG
WAUTOMA        NOT AVBL
WISC RAPIDS    SUNNY     40  33  76 SW6       29.95F
CAMP DOUGLAS   NOT AVBL
$$

WIZ011>013-019>022-031-037>040-048>050-261800-
NORTHEAST WISCONSIN

CITY           SKY/WX    TMP DP  RH WIND       PRES   REMARKS
ANTIGO         CLOUDY    30  30 100 CALM      29.94S FOG
SHAWANO        FOG       32  31  96 CALM      29.98R VSB 1/4
OCONTO         SUNNY     35  35 100 CALM      29.97F
STURGEON BAY   SUNNY     37  34  87 SW5       29.98F WCI  34
GREEN BAY      SUNNY     39  35  86 SW6       29.96F WCI  35
MANITOWOC      NOT AVBL
APPLETON       MOSUNNY   39  36  87 SW8       29.96F WCI  34
CLINTONVILLE   FOG       30  30 100 N3        29.98R VSB<1/4
OSHKOSH        SUNNY     42  35  76 SW7       29.96F
$$

WIZ032>034-041-042-053>061-261800-
SOUTHWEST WISCONSIN

CITY           SKY/WX    TMP DP  RH WIND       PRES   REMARKS
LA CROSSE      SUNNY     36  31  82 CALM      29.95S
SPARTA         SUNNY     38  33  81 CALM      29.95S
VIROQUA        SUNNY     39  33  80 SW7       29.93S WCI  34
BOSCOBEL       SUNNY     43  34  70 S5        29.95F
PRAIRIE DU CHI SUNNY     39  31  72 CALM      29.96R
PLATTEVILLE    PTSUNNY   40  36  85 CALM      29.97S
$$

WIZ056-057-062-063-064-067-068-261800-
SOUTH CENTRAL WISCONSIN

CITY           SKY/WX    TMP DP  RH WIND       PRES   REMARKS
REEDSBURG      SUNNY     41  34  75 SW7       29.94F
BARABOO/DELLS  SUNNY     43  33  68 SW10      29.94F
LONE ROCK      NOT AVBL
MINERAL POINT  MOSUNNY   41  36  81 S6        29.95S
MADISON        PTSUNNY   42  34  73 S7        29.96F
MIDDLETON      MOSUNNY   43  35  72 SW5       29.97S
WATERTOWN      MOSUNNY   40  36  85 S8        29.97F WCI  35
MONROE         PTSUNNY   39  36  87 S14       29.96S WCI  31
JANESVILLE     NOT AVBL
$$

WIZ051-052-058>065-066-070>072-261800-
SOUTHEAST WISCONSIN

CITY           SKY/WX    TMP DP  RH WIND       PRES   REMARKS
MILWAUKEE      PTSUNNY   44  34  67 SW14G22   29.99F
WAUKESHA       SUNNY     39  34  81 SW9       29.99F WCI  33
MILWAUKEE/TIMM SUNNY     41  34  75 SW7       29.99F
RACINE         PTSUNNY   46  35  65 SW12      30.01F
BURLINGTON     PTSUNNY   43  35  72 SW13      29.99F
KENOSHA        PTSUNNY   45  36  70 SW14G23   29.99F
FOND DU LAC    SUNNY     42  35  76 SW9       29.96F
SHEBOYGAN      SUNNY     44  36  73 SW10      29.97F
WEST BEND      SUNNY     43  34  70 SW7       29.97F
JUNEAU         MOSUNNY   39  35  87 S7        29.98F WCI  34
$$

LSZ147-162-261800-
LAKE SUPERIOR

STATION/POSITION TIME  TEMP    WIND        PRES    WAVE
                       AIR SEA DIR/SP/G            HT/PER
                 (UTC) (F)     (DEG/KT/KT) (MB)    (FT/S)
DEVILS ISLAND    1600   32      10/ 12/ 13 1018.3R
PORT WING        1640   31      20/  9/ 11 1017.9R
SAXON HARBOR     1600   34      10/  6/  9 1016.9
$$

LMZ867-665-643>646-261800-
LAKE MICHIGAN

STATION/POSITION TIME  TEMP    WIND        PRES    WAVE
                       AIR SEA DIR/SP/G            HT/PER
                 (UTC) (F)     (DEG/KT/KT) (MB)    (FT/S)
CHAMBERS ISLAND  1600   35      CALM  /  1 1015.9R
NORTHPORT PIER   1600   36     240/  1/  3 1015.6R
SISTER BAY       1528             CALM       N/A
ALGOMA LAKESHORE 1645          210/  7/  9   N/A
KEWAUNEE LAKESHO 1600   40     200/  1/  3 1014.4R
SHEBOYGAN LAKESH 1600   41 39  210/ 10/ 12 1016.2R
PORT WASHINGTON  1600   46     210/  5/  9 1016.3
MILWAUKEE LAKESH 1600   41     230/ 12/ 16   N/A
KENOSHA   LAKESH 1600   43     220/  8/ 14 1016.3S
$$

TC  - TEMPERATURE IN CELSIUS
VSB - VISIBILITY IN STATUTE MILES
WCI - WIND CHILL INDEX
HX  - HEAT INDEX



USA.gov is the U.S. government's official web portal to all federal, state and local government web resources and services.